Pagina principale
METAR-TAF:

METAR-TAF

Aeroporti :

Jaffrey, New Hampshire, Stati Uniti

latitudine: 42-48-21N, longitudine: 072-00-02W, altezza: 317 m

Osservazione

Il bollettino è stato emesso 55 minuti fa, alle 08:52 UTC
Vento calmo
Temperature 0°C
Umidità 100%
Pressione 1013 hPa
Visibilità: 16.1 km
Cielo sereno

METAR: KAFN 170852Z AUTO 00000KT 10SM CLR 00/00 A2991 RMK AO2 SLP141 I1000 I3000 T00000000 56017

Ora: 05:47 (09:47 UTC)


TAF: mancante

Osservazioni e previsioni meteorologiche di più di 4000 aeroporti (messaggi METAR e TAF).

Le stazioni disponibili sono rappresentate dai dischi gialli e rossi sulla carta.

Puntare il mouse per vedere il nome della stazione.

Clicca sopra per visualizzare le osservazioni e previsioni meteorologiche.

Per cambiare la mappa : fare clic sui pulsanti verdi con una croce nera per ingrandire, il pulsante verde con un trattino per diminuire, o sulla freccia verde per le mappe adiacenti.


METAR-TAF: